Вернуться в каталог

COSMOS 2251 DEB

АктивенLEO
NORAD 37533·DEBRIS·🇷🇺 Russia

Запущен Jun 16, 1993 с Plesetsk Cosmodrome

Loading…

Ближайшие Пролёты (ближайшие 24 часа)

TLE

УстаревшееSource: Space-Track

Эпоха: Sep 2, 2026, 21:49 UTC

1 37533U 93036BNN 26245.90946049  .00001002  00000-0  48457-3 0  9996
2 37533  74.0653  85.5376 0157922  78.5051 283.3775 14.13422093666523

Отслеживайте COSMOS 2251 DEB в реальном времени с AllMySat

Download on the App Store